Retour au catalogue

FENGYUN 1C DEB

ActifSSO
NORAD 29929·DEBRIS·🇨🇳 China

Lancé May 10, 1999 depuis Taiyuan Satellite Launch Center

Loading…

Prochains Passages (prochaines 24 heures)

TLE

FraisSource: Space-Track

Époque: Sep 14, 2026, 05:43 UTC

1 29929U 99025JB  26257.23872588  .00000871  00000-0  54948-3 0  9990
2 29929  98.6197 166.7847 0131020 124.0362  27.3194 14.02440441998160

Suivez FENGYUN 1C DEB en temps réel avec AllMySat

Download on the App Store